Regional Weather Roundup
Issued by NWS

Home | Current Version | Previous Version | Text Only | Print | Product List | Glossary On
Versions: 1 2 3 4 5 6 7 8 9 10 11 12 13 14 15 16 17 18 19 20 21 22 23 24 25 26 27 28 29 30 31 32 33 34 35 36 37 38 39 40 41 42 43 44 45 46 47 48 49 50
721
ASUS43 KFSD 271310
RWRSD

WEATHER ROUNDUP FOR SOUTH DAKOTA
NATIONAL WEATHER SERVICE SIOUX FALLS SD
800 AM CDT MON MAR 27 2017

NOTE: "FAIR" INDICATES FEW OR NO CLOUDS BELOW 12,000 FEET WITH NO
SIGNIFICANT WEATHER AND/OR OBSTRUCTIONS TO VISIBILITY.


SDZ001>005-009-010-012>017-271400-
NORTHWEST AND NORTH CENTRAL SOUTH DAKOTA

CITY           SKY/WX    TMP DP  RH WIND       PRES   REMARKS
BUFFALO          N/A     36  34  92 S5        29.82R
FAITH            N/A     31  31 100 MISG      29.91R
MOBRIDGE       FOG       31  28  89 CALM      29.90S VSB<1/4
$$

SDZ012>016-024>037-041>051-057-063-072>074-271400-
SOUTHWEST AND SOUTH CENTRAL SOUTH DAKOTA

CITY           SKY/WX    TMP DP  RH WIND       PRES   REMARKS
RAPID CTY ARPT FOG       24  23  96 CALM      29.88S VSB 1/2
PIERRE         FOG       35  35 100 CALM      29.93R VSB 1/4
CUSTER         CLOUDY    27  24  89 NW5       29.87S WCI  22
ELLSWORTH AFB  CLEAR     32  32  99 S3        29.87S
PHILIP         CLOUDY    38  37  97 CALM      29.92S
PINE RIDGE     PTCLDY    31  31 100 CALM      29.90S FOG
SPEARFISH      FAIR      34  30  86 SW5       29.87S WCI  30
WINNER         MIX PCPN  29  27  92 CALM      29.95R FOG
$$

SDZ004>011-016>023-039-040-271400-
NORTHEAST SOUTH DAKOTA

CITY           SKY/WX    TMP DP  RH WIND       PRES   REMARKS
ABERDEEN       FOG       28  26  92 SE3       29.95S VSB 3/4
WATERTOWN      PTCLDY    33  32  96 CALM      29.95R FOG
BROOKINGS      CLOUDY    31  31 100 S3        29.95S FOG
SISSETON         N/A     35  35 100 W5        29.96R
$$

SDZ017-020-022-023-036>040-048>070-271400-
SOUTHEAST SOUTH DAKOTA

CITY           SKY/WX    TMP DP  RH WIND       PRES   REMARKS
SIOUX FALLS    CLOUDY    41  39  93 CALM      29.97R
HURON          CLOUDY    38  37  97 S5        29.95R
CHAMBERLAIN    FOG       30  30 100 CALM      29.95S VSB<1/4
MITCHELL       FOG       29  29 100 CALM      29.97R VSB<1/4
YANKTON        CLOUDY    43  37  81 E3        29.97R
$$

ABBREVIATIONS USED IN REMARKS
   TC - TEMPERATURE IN CELSIUS
  WCI - WIND CHILL INDEX
   HX - HEAT INDEX
  VSB - VISIBILITY





USA.gov is the U.S. government's official web portal to all federal, state and local government web resources and services.